GW2822 Weather Reports


time (UTC)temp
C
wind
direction
speed
KPH
gust
KPH
rain 1hr
cm
rain 24hr
cm
rain mn
cm
humidity
%
barometer
mb
20260902014545 31 90 0.0 0.0 0.00 0.00 0.00 58 1009.8
20260902014034 31 90 0.0 0.0 0.00 0.00 0.00 56 1009.8
20260902013524 31 90 0.0 3.2 0.00 0.00 0.00 56 1009.7
20260902013013 31 90 0.0 4.8 0.00 0.00 0.00 55 1009.6
20260902012505 31 88 0.0 9.7 0.00 0.00 0.00 55 1009.6
20260902012053 31 88 1.6 9.7 0.00 0.00 0.00 54 1009.6
20260902011542 32 94 1.6 9.7 0.00 0.00 0.00 54 1009.5
20260902011032 32 106 3.2 11.3 0.00 0.00 0.00 53 1009.4
20260902010523 32 105 1.6 17.7 0.00 0.00 0.00 53 1009.4
20260902010101 32 88 4.8 17.7 0.00 0.00 0.00 53 1009.4
20260902005550 32 74 6.4 16.1 0.00 0.00 0.00 52 1009.4
20260902005040 32 80 4.8 12.9 0.00 0.00 0.00 51 1009.4
20260902004528 33 111 4.8 16.1 0.00 0.00 0.00 51 1009.4
20260902004015 33 114 6.4 20.9 0.00 0.00 0.00 50 1009.4
20260902003504 33 102 9.7 20.9 0.00 0.00 0.00 49 1009.4
20260902003056 33 136 6.4 20.9 0.00 0.00 0.00 46 1009.5
20260902002544 34 67 0.0 3.2 0.00 0.00 0.00 45 1009.4
20260902002034 34 65 0.0 3.2 0.00 0.00 0.00 45 1009.4
20260902001524 34 55 0.0 6.4 0.00 0.00 0.00 45 1009.4
20260902001012 34 83 1.6 6.4 0.00 0.00 0.00 44 1009.5
20260902000502 35 85 0.0 6.4 0.00 0.00 0.00 44 1009.4
20260902000041 35 71 1.6 8.0 0.00 0.00 0.00 43 1009.4
20260901235531 35 49 3.2 9.7 0.00 0.00 0.00 42 1009.4
20260901235019 35 47 3.2 9.7 0.00 0.00 0.00 42 1009.4
20260901234507 35 94 0.0 3.2 0.00 0.00 0.00 44 1009.4
20260901234059 35 101 0.0 4.8 0.00 0.00 0.00 44 1009.4
20260901233549 35 99 0.0 6.4 0.00 0.00 0.00 44 1009.4
20260901233039 35 163 3.2 9.7 0.00 0.00 0.00 43 1009.4
20260901232527 35 181 1.6 11.3 0.00 0.00 0.00 43 1009.4
20260901232016 36 145 4.8 11.3 0.00 0.00 0.00 42 1009.3
20260901231506 36 98 3.2 14.5 0.00 0.00 0.00 42 1009.3
20260901231056 36 128 8.0 14.5 0.00 0.00 0.00 41 1009.3
20260901230546 36 147 4.8 14.5 0.00 0.00 0.00 42 1009.4
20260901230022 36 133 1.6 16.1 0.00 0.00 0.00 41 1009.3
20260901225511 36 155 11.3 16.1 0.00 0.00 0.00 41 1009.4
20260901225101 36 167 4.8 11.3 0.00 0.00 0.00 42 1009.3
20260901224551 36 221 6.4 14.5 0.00 0.00 0.00 42 1009.3
20260901224043 36 191 6.4 14.5 0.00 0.00 0.00 43 1009.3
20260901223529 35 128 8.0 14.5 0.00 0.00 0.00 44 1009.3
20260901223026 35 121 0.0 12.9 0.00 0.00 0.00 45 1009.3
20260901222508 35 84 4.8 12.9 0.00 0.00 0.00 45 1009.3
20260901222058 35 86 9.7 12.9 0.00 0.00 0.00 45 1009.4
20260901221548 35 86 6.4 11.3 0.00 0.00 0.00 45 1009.4
20260901221038 35 157 1.6 12.9 0.00 0.00 0.00 44 1009.4
20260901220526 35 113 4.8 16.1 0.00 0.00 0.00 44 1009.3
20260901220002 35 91 8.0 14.5 0.00 0.00 0.00 44 1009.4
20260901215554 35 116 1.6 11.3 0.00 0.00 0.00 44 1009.4
20260901215043 35 154 3.2 12.9 0.00 0.00 0.00 43 1009.5
20260901214535 36 159 3.2 11.3 0.00 0.00 0.00 42 1009.5
20260901214021 36 177 6.4 16.1 0.00 0.00 0.00 42 1009.5
20260901213511 35 167 4.8 11.3 0.00 0.00 0.00 44 1009.6
20260901213120 35 132 1.6 12.9 0.00 0.00 0.00 43 1009.6
20260901212552 36 110 1.6 14.5 0.00 0.00 0.00 42 1009.7
20260901212041 36 138 3.2 14.5 0.00 0.00 0.00 41 1009.7
20260901211530 36 158 0.0 8.0 0.00 0.00 0.00 41 1009.7
20260901211019 36 153 1.6 11.3 0.00 0.00 0.00 41 1009.8
20260901210509 37 130 4.8 17.7 0.00 0.00 0.00 41 1009.9
20260901210048 37 140 9.7 17.7 0.00 0.00 0.00 40 1009.9
20260901205538 37 191 6.4 14.5 0.00 0.00 0.00 40 1010.0
20260901205026 37 165 8.0 14.5 0.00 0.00 0.00 41 1010.1
20260901204517 37 136 8.0 16.1 0.00 0.00 0.00 41 1010.2
20260901204006 36 215 1.6 12.9 0.00 0.00 0.00 42 1010.2
20260901203557 36 53 3.2 12.9 0.00 0.00 0.00 42 1010.3
20260901203046 36 192 0.0 16.1 0.00 0.00 0.00 43 1010.5
20260901202539 36 103 8.0 25.7 0.00 0.00 0.00 44 1010.5
20260901202027 36 126 11.3 25.7 0.00 0.00 0.00 44 1010.6
20260901201514 36 194 4.8 12.9 0.00 0.00 0.00 44 1010.6
20260901201002 36 117 6.4 16.1 0.00 0.00 0.00 43 1010.7
20260901200552 36 116 8.0 16.1 0.00 0.00 0.00 42 1010.8
20260901200029 36 128 4.8 14.5 0.00 0.00 0.00 42 1010.9
20260901195518 36 105 1.6 14.5 0.00 0.00 0.00 43 1010.9
20260901195008 36 187 4.8 19.3 0.00 0.00 0.00 43 1011.0
20260901194600 36 157 4.8 19.3 0.00 0.00 0.00 45 1011.1
20260901194050 36 119 9.7 17.7 0.00 0.00 0.00 45 1011.1
20260901193537 35 138 8.0 17.7 0.00 0.00 0.00 46 1011.2
20260901193026 35 190 4.8 11.3 0.00 0.00 0.00 47 1011.2
20260901192515 35 198 0.0 9.7 0.00 0.00 0.00 47 1011.3
20260901192005 35 209 4.8 9.7 0.00 0.00 0.00 47 1011.4
20260901191556 35 196 0.0 11.3 0.00 0.00 0.00 47 1011.4
20260901191045 35 74 0.0 14.5 0.00 0.00 0.00 46 1011.5
20260901190534 35 182 6.4 14.5 0.00 0.00 0.00 47 1011.5
20260901190011 35 90 0.0 6.4 0.00 0.00 0.00 46 1011.6
20260901185603 35 49 0.0 8.0 0.00 0.00 0.00 45 1011.8
20260901185051 35 153 3.2 12.9 0.00 0.00 0.00 45 1011.8
20260901184547 35 171 6.4 14.5 0.00 0.00 0.00 45 1011.9
20260901184030 35 162 6.4 14.5 0.00 0.00 0.00 45 1012.0
20260901183518 35 274 1.6 16.1 0.00 0.00 0.00 45 1012.1
20260901183008 35 171 9.7 17.7 0.00 0.00 0.00 46 1012.2
20260901182600 35 225 3.2 9.7 0.00 0.00 0.00 45 1012.3
20260901182049 35 110 4.8 19.3 0.00 0.00 0.00 45 1012.4
20260901181539 35 121 9.7 19.3 0.00 0.00 0.00 45 1012.5
20260901181027 35 91 8.0 14.5 0.00 0.00 0.00 45 1012.5
20260901180516 35 184 4.8 12.9 0.00 0.00 0.00 46 1012.5
20260901180058 35 11 0.0 16.1 0.00 0.00 0.00 45 1012.6
20260901175543 35 101 4.8 16.1 0.00 0.00 0.00 45 1012.8
20260901175033 35 132 6.4 19.3 0.00 0.00 0.00 46 1012.9
20260901174522 35 148 9.7 20.9 0.00 0.00 0.00 46 1013.0
20260901174014 35 119 9.7 19.3 0.00 0.00 0.00 46 1013.0
20260901173500 35 153 6.4 19.3 0.00 0.00 0.00 46 1013.0
20260901173052 35 115 8.0 19.3 0.00 0.00 0.00 47 1013.1
20260901172544 34 207 4.8 14.5 0.00 0.00 0.00 47 1013.1
20260901172031 34 53 3.2 11.3 0.00 0.00 0.00 47 1013.2
20260901171519 34 188 1.6 20.9 0.00 0.00 0.00 47 1013.2
20260901171008 33 115 9.7 20.9 0.00 0.00 0.00 47 1013.2
20260901170559 33 150 4.8 12.9 0.00 0.00 0.00 47 1013.2
20260901170040 33 219 6.4 19.3 0.00 0.00 0.00 48 1013.4
20260901165526 33 99 0.0 16.1 0.00 0.00 0.00 48 1013.4
20260901165015 33 203 9.7 16.1 0.00 0.00 0.00 48 1013.4
20260901164505 33 138 4.8 12.9 0.00 0.00 0.00 49 1013.4
20260901164056 33 208 3.2 16.1 0.00 0.00 0.00 49 1013.4
20260901163545 33 87 6.4 16.1 0.00 0.00 0.00 49 1013.4
20260901163035 33 82 4.8 11.3 0.00 0.00 0.00 50 1013.4
20260901162523 32 128 1.6 11.3 0.00 0.00 0.00 51 1013.5
20260901162013 32 171 4.8 11.3 0.00 0.00 0.00 51 1013.6
20260901161503 32 142 6.4 12.9 0.00 0.00 0.00 50 1013.6
20260901161054 32 160 4.8 12.9 0.00 0.00 0.00 51 1013.6
20260901160542 32 273 4.8 12.9 0.00 0.00 0.00 52 1013.7
20260901160024 32 70 0.0 12.9 0.00 0.00 0.00 53 1013.6
20260901155509 32 158 0.0 9.7 0.00 0.00 0.00 54 1013.6
20260901155102 32 90 3.2 12.9 0.00 0.00 0.00 55 1013.6
20260901154551 31 114 1.6 12.9 0.00 0.00 0.00 55 1013.7
20260901154038 31 186 3.2 12.9 0.00 0.00 0.00 56 1013.7
20260901153532 31 128 3.2 11.3 0.00 0.00 0.00 58 1013.7
20260901153017 30 170 1.6 9.7 0.00 0.00 0.00 60 1013.7
20260901152506 30 318 0.0 11.3 0.00 0.00 0.00 62 1013.7
20260901152057 30 182 3.2 11.3 0.00 0.00 0.00 62 1013.8
20260901151547 30 201 1.6 8.0 0.00 0.00 0.00 63 1013.8
20260901151038 30 215 4.8 8.0 0.00 0.00 0.00 65 1013.8
20260901150525 30 198 0.0 11.3 0.00 0.00 0.00 66 1013.8
20260901150007 29 213 1.6 9.7 0.00 0.00 0.00 65 1013.8
20260901145553 29 251 1.6 11.3 0.00 0.00 0.00 66 1013.8
20260901145043 28 124 4.8 11.3 0.00 0.00 0.00 68 1013.7
20260901144534 28 242 1.6 9.7 0.00 0.00 0.00 70 1013.8
20260901144022 28 108 1.6 8.0 0.00 0.00 0.00 74 1013.7
20260901143512 27 223 3.2 8.0 0.00 0.00 0.00 75 1013.7
20260901143115 27 219 0.0 8.0 0.00 0.00 0.00 77 1013.6
20260901142552 27 219 0.0 11.3 0.00 0.00 0.00 79 1013.7
20260901142041 26 215 3.2 12.9 0.00 0.00 0.00 82 1013.8
20260901141536 26 225 0.0 12.9 0.00 0.00 0.00 85 1013.9
20260901141020 26 187 1.6 8.0 0.00 0.00 0.00 88 1013.9
20260901140509 25 267 0.0 1.6 0.00 0.00 0.00 90 1013.8
20260901140049 25 267 0.0 0.0 0.00 0.00 0.00 91 1013.8
20260901135539 24 266 0.0 0.0 0.00 0.00 0.00 92 1013.9
20260901135027 23 266 0.0 1.6 0.00 0.00 0.00 93 1013.9
20260901134516 23 265 0.0 1.6 0.00 0.00 0.00 93 1013.9
20260901134009 23 266 0.0 3.2 0.00 0.00 0.00 94 1013.8
20260901133557 22 244 0.0 3.2 0.00 0.00 0.00 94 1013.8
20260901133050 22 194 0.0 0.0 0.00 0.00 0.00 94 1013.7
20260901132537 22 194 0.0 0.0 0.00 0.00 0.00 94 1013.7
20260901132024 21 194 0.0 0.0 0.00 0.00 0.00 93 1013.7
20260901131515 21 194 0.0 0.0 0.00 0.00 0.00 93 1013.7
20260901131005 21 194 0.0 1.6 0.00 0.00 0.00 93 1013.7
20260901130555 21 194 0.0 0.0 0.00 0.00 0.00 93 1013.7
20260901130035 21 194 0.0 0.0 0.00 0.00 0.00 93 1013.6
20260901125520 20 194 0.0 0.0 0.00 0.00 0.00 93 1013.5
20260901125010 20 194 0.0 0.0 0.00 0.00 0.00 92 1013.5
20260901124602 20 194 0.0 0.0 0.00 0.00 0.00 92 1013.4
20260901124052 20 194 0.0 0.0 0.00 0.00 0.00 92 1013.3
20260901123539 20 194 0.0 0.0 0.00 0.00 0.00 92 1013.3
20260901123034 20 179 0.0 0.0 0.00 0.00 0.00 92 1013.2
20260901122518 20 204 0.0 0.0 0.00 0.00 0.00 92 1013.2
20260901122007 20 204 0.0 0.0 0.00 0.00 0.00 92 1013.1
20260901121606 20 204 0.0 0.0 0.00 0.00 0.00 92 1013.1
20260901121047 20 204 0.0 0.0 0.00 0.00 0.00 92 1013.0
20260901120537 20 204 0.0 0.0 0.00 0.00 0.00 92 1013.0
20260901120011 20 204 0.0 0.0 0.00 0.00 0.00 92 1013.0
20260901115602 20 204 0.0 0.0 0.00 0.00 0.00 91 1013.1
20260901115052 20 204 0.0 0.0 0.00 0.00 0.00 91 1013.1
20260901114553 20 204 0.0 0.0 0.00 0.00 0.00 91 1013.0
20260901114030 20 205 0.0 0.0 0.00 0.00 0.00 91 1012.9
20260901113520 20 204 0.0 3.2 0.00 0.00 0.00 91 1013.0
20260901113010 20 204 0.0 3.2 0.00 0.00 0.00 91 1012.9
20260901112600 21 167 0.0 1.6 0.00 0.00 0.00 90 1013.0
20260901112050 21 165 0.0 0.0 0.00 0.00 0.00 90 1013.1
20260901111541 21 165 0.0 0.0 0.00 0.00 0.00 90 1013.0
20260901111029 21 165 0.0 0.0 0.00 0.00 0.00 90 1012.9
20260901110517 21 165 0.0 0.0 0.00 0.00 0.00 90 1013.0
20260901110054 21 165 0.0 0.0 0.00 0.00 0.00 89 1013.0
20260901105542 21 165 0.0 0.0 0.00 0.00 0.00 89 1013.0
20260901105033 21 165 0.0 0.0 0.00 0.00 0.00 89 1013.0
20260901104521 21 165 0.0 0.0 0.00 0.00 0.00 89 1013.0
20260901104011 21 165 0.0 0.0 0.00 0.00 0.00 89 1013.0
20260901103601 21 165 0.0 0.0 0.00 0.00 0.00 89 1012.9
20260901103102 21 165 0.0 0.0 0.00 0.00 0.00 89 1013.0
20260901102541 21 165 0.0 0.0 0.00 0.00 0.00 88 1013.0
20260901102030 21 165 0.0 0.0 0.00 0.00 0.00 88 1012.9
20260901101519 21 165 0.0 0.0 0.00 0.00 0.00 88 1012.8
20260901101009 21 165 0.0 0.0 0.00 0.00 0.00 88 1012.7
20260901100602 22 165 0.0 0.0 0.00 0.00 0.00 88 1012.7
20260901100042 22 165 0.0 1.6 0.00 0.00 0.00 87 1012.7
20260901095528 22 165 0.0 3.2 0.00 0.00 0.00 87 1012.8
20260901095014 22 166 0.0 3.2 0.00 0.00 0.00 86 1012.8
20260901094506 22 166 0.0 0.0 0.00 0.00 0.00 85 1012.8
20260901094055 22 166 0.0 0.0 0.00 0.00 0.00 85 1012.8
20260901093543 22 166 0.0 0.0 0.00 0.00 0.00 84 1012.8
20260901093035 23 166 0.0 0.0 0.00 0.00 0.00 84 1012.9
20260901092522 23 166 0.0 0.0 0.00 0.00 0.00 84 1013.0
20260901092015 23 166 0.0 0.0 0.00 0.00 0.00 84 1013.0
20260901091501 23 166 0.0 0.0 0.00 0.00 0.00 83 1013.0
20260901091054 23 166 0.0 0.0 0.00 0.00 0.00 83 1013.0
20260901090542 23 166 0.0 0.0 0.00 0.00 0.00 83 1013.0
20260901090019 23 166 0.0 0.0 0.00 0.00 0.00 83 1013.0
20260901085508 24 166 0.0 0.0 0.00 0.00 0.00 82 1013.0
20260901085059 24 166 0.0 0.0 0.00 0.00 0.00 82 1013.0
20260901084548 24 166 0.0 0.0 0.00 0.00 0.00 82 1013.0
20260901084039 24 166 0.0 0.0 0.00 0.00 0.00 82 1013.0
20260901083527 24 166 0.0 1.6 0.00 0.00 0.00 81 1013.0
20260901083017 25 166 0.0 0.0 0.00 0.00 0.00 80 1013.0
20260901082509 25 166 0.0 0.0 0.00 0.00 0.00 80 1012.9
20260901082057 25 166 0.0 0.0 0.00 0.00 0.00 80 1012.9
20260901081548 25 166 0.0 0.0 0.00 0.00 0.00 80 1012.9
20260901081035 25 166 0.0 1.6 0.00 0.00 0.00 80 1012.9
20260901080528 25 166 0.0 3.2 0.00 0.00 0.00 79 1012.9
20260901080003 25 166 0.0 4.8 0.00 0.00 0.00 78 1012.8
20260901075554 25 166 0.0 4.8 0.00 0.00 0.00 78 1012.8
20260901075042 25 163 0.0 4.8 0.00 0.00 0.00 78 1012.8
20260901074532 25 142 0.0 3.2 0.00 0.00 0.00 77 1012.9
20260901074021 25 138 0.0 4.8 0.00 0.00 0.00 77 1013.0
20260901073509 25 138 0.0 4.8 0.00 0.00 0.00 77 1013.0
20260901073102 25 145 0.0 4.8 0.00 0.00 0.00 76 1013.0
20260901072555 25 147 0.0 9.7 0.00 0.00 0.00 76 1012.9
20260901072039 26 145 1.6 9.7 0.00 0.00 0.00 75 1012.9
20260901071527 26 130 1.6 6.4 0.00 0.00 0.00 75 1012.9
20260901071014 26 130 0.0 4.8 0.00 0.00 0.00 74 1013.0
20260901070504 26 117 0.0 1.6 0.00 0.00 0.00 74 1012.8
20260901070043 26 117 0.0 1.6 0.00 0.00 0.00 73 1012.9
20260901065534 26 117 0.0 3.2 0.00 0.00 0.00 73 1012.9
20260901065022 26 165 0.0 4.8 0.00 0.00 0.00 73 1012.9
20260901064512 26 165 1.6 4.8 0.00 0.00 0.00 72 1012.8
20260901064103 26 183 0.0 4.8 0.00 0.00 0.00 72 1012.8
20260901063554 26 184 1.6 6.4 0.00 0.00 0.00 72 1012.7
20260901063044 26 180 1.6 11.3 0.00 0.00 0.00 72 1012.7
20260901062530 26 173 3.2 11.3 0.00 0.00 0.00 71 1012.7
20260901062018 27 163 3.2 9.7 0.00 0.00 0.00 71 1012.7
20260901061508 27 171 6.4 12.9 0.00 0.00 0.00 71 1012.8
20260901061101 27 179 1.6 12.9 0.00 0.00 0.00 71 1012.8
20260901060549 27 155 1.6 9.7 0.00 0.00 0.00 71 1012.7
20260901060024 27 155 0.0 11.3 0.00 0.00 0.00 70 1012.6
20260901055513 27 140 6.4 11.3 0.00 0.00 0.00 70 1012.6
20260901055004 27 173 3.2 12.9 0.00 0.00 0.00 70 1012.5
20260901054554 27 168 4.8 12.9 0.00 0.00 0.00 70 1012.5
20260901054043 27 124 3.2 14.5 0.00 0.00 0.00 69 1012.4
20260901053533 27 141 6.4 16.1 0.00 0.00 0.00 69 1012.3
20260901053021 27 128 6.4 16.1 0.00 0.00 0.00 69 1012.3
20260901052510 27 141 4.8 14.5 0.00 0.00 0.00 68 1012.3
20260901052102 27 168 9.7 14.5 0.00 0.00 0.00 68 1012.3
20260901051558 27 136 6.4 11.3 0.00 0.00 0.00 68 1012.3
20260901051041 27 164 4.8 12.9 0.00 0.00 0.00 68 1012.3
20260901050530 27 139 4.8 17.7 0.00 0.00 0.00 68 1012.2
20260901050007 27 164 6.4 17.7 0.00 0.00 0.00 67 1012.2
20260901045559 27 121 8.0 14.5 0.00 0.00 0.00 67 1012.2
20260901045048 27 125 6.4 16.1 0.00 0.00 0.00 67 1012.2
20260901044537 27 122 4.8 16.1 0.00 0.00 0.00 68 1012.1
20260901044023 27 134 6.4 14.5 0.00 0.00 0.00 68 1012.1
20260901043513 27 132 6.4 14.5 0.00 0.00 0.00 69 1012.1
20260901043002 27 177 4.8 11.3 0.00 0.00 0.00 70 1012.1
20260901042553 27 144 3.2 11.3 0.00 0.00 0.00 70 1012.1
20260901042044 26 163 1.6 11.3 0.00 0.00 0.00 70 1012.1
20260901041537 26 153 1.6 9.7 0.00 0.00 0.00 70 1012.1
20260901041021 26 112 0.0 3.2 0.00 0.00 0.00 69 1012.1
20260901040511 26 112 0.0 1.6 0.00 0.00 0.00 69 1012.2
20260901040108 26 113 0.0 4.8 0.00 0.00 0.00 69 1012.0
20260901035537 26 113 0.0 4.8 0.00 0.00 0.00 69 1012.0
20260901035025 26 112 0.0 1.6 0.00 0.00 0.00 68 1012.0
20260901034525 26 112 0.0 1.6 0.00 0.00 0.00 67 1012.0
20260901034004 26 144 0.0 0.0 0.00 0.00 0.00 65 1011.8
20260901033555 26 64 0.0 0.0 0.00 0.00 0.00 63 1011.8
20260901033045 27 64 0.0 0.0 0.00 0.00 0.00 63 1011.7
20260901032534 27 64 0.0 0.0 0.00 0.00 0.00 63 1011.7
20260901032024 27 64 0.0 0.0 0.00 0.00 0.00 64 1011.7
20260901031522 27 64 0.0 0.0 0.00 0.00 0.00 63 1011.6
20260901031001 27 64 0.0 0.0 0.00 0.00 0.00 62 1011.5
20260901030552 27 64 0.0 0.0 0.00 0.00 0.00 63 1011.5
20260901030028 27 64 0.0 0.0 0.00 0.00 0.00 60 1011.4
20260901025519 28 64 0.0 0.0 0.00 0.00 0.00 59 1011.3
20260901025009 28 64 0.0 0.0 0.00 0.00 0.00 59 1011.4
20260901024559 28 64 0.0 0.0 0.00 0.00 0.00 58 1011.3
20260901024048 28 64 0.0 0.0 0.00 0.00 0.00 57 1011.2
20260901023538 28 64 0.0 0.0 0.00 0.00 0.00 56 1011.1
20260901023026 28 64 0.0 0.0 0.00 0.00 0.00 56 1011.0
20260901022519 28 69 0.0 0.0 0.00 0.00 0.00 56 1010.9
20260901022008 28 69 0.0 3.2 0.00 0.00 0.00 56 1010.8
20260901021557 28 108 0.0 3.2 0.00 0.00 0.00 56 1010.7
20260901021046 28 128 0.0 3.2 0.00 0.00 0.00 55 1010.7
20260901020535 28 128 0.0 0.0 0.00 0.00 0.00 54 1010.6
20260901020012 29 128 0.0 0.0 0.00 0.00 0.00 55 1010.5
20260901015502 29 128 0.0 0.0 0.00 0.00 0.00 54 1010.4
20260901015053 30 128 0.0 0.0 0.00 0.00 0.00 53 1010.3